TimeMDT,TemperatureF,Dew PointF,Humidity,Sea Level PressureIn,VisibilityMPH,Wind Direction,Wind SpeedMPH,Gust SpeedMPH,PrecipitationIn,Events,Conditions,WindDirDegrees,DateUTC
12:15 AM,63.9,61.0,90,30.13,10.0,Calm,Calm,-,N/A,,Clear,0,2013-07-24 06:15:00
12:35 AM,63.3,59.9,89,30.14,10.0,Calm,Calm,-,N/A,,Clear,0,2013-07-24 06:35:00
12:55 AM,62.6,59.9,91,30.14,10.0,Calm,Calm,-,N/A,,Clear,0,2013-07-24 06:55:00
1:15 AM,62.2,59.9,92,30.14,10.0,Calm,Calm,-,N/A,,Clear,0,2013-07-24 07:15:00
1:35 AM,62.1,60.1,93,30.14,10.0,Calm,Calm,-,N/A,,Clear,0,2013-07-24 07:35:00
1:55 AM,61.3,59.0,92,30.14,10.0,Calm,Calm,-,N/A,,Clear,0,2013-07-24 07:55:00
2:15 AM,61.5,59.4,93,30.15,10.0,East,3.5,-,N/A,,Clear,80,2013-07-24 08:15:00
2:35 AM,62.2,59.5,91,30.15,10.0,Calm,Calm,-,N/A,,Clear,0,2013-07-24 08:35:00
2:55 AM,61.7,59.5,93,30.15,10.0,Calm,Calm,-,N/A,,Clear,0,2013-07-24 08:55:00
3:15 AM,61.9,59.7,93,30.15,7.0,Calm,Calm,-,N/A,,Clear,0,2013-07-24 09:15:00
3:35 AM,61.5,59.2,92,30.14,10.0,Calm,Calm,-,N/A,,Clear,0,2013-07-24 09:35:00
3:55 AM,62.6,60.1,91,30.14,7.0,Calm,Calm,-,N/A,,Clear,0,2013-07-24 09:55:00
3:56 AM,62.6,60.8,94,30.14,7.0,Calm,Calm,-,N/A,,Clear,0,2013-07-24 09:56:00
4:15 AM,62.6,60.1,91,30.14,7.0,Calm,Calm,-,N/A,,Clear,0,2013-07-24 10:15:00
4:35 AM,61.9,59.7,93,30.15,5.0,Calm,Calm,-,N/A,,Clear,0,2013-07-24 10:35:00
4:55 AM,60.4,58.3,93,30.15,5.0,Calm,Calm,-,N/A,,Clear,0,2013-07-24 10:55:00
5:15 AM,61.2,59.2,93,30.15,5.0,Calm,Calm,-,N/A,,Clear,0,2013-07-24 11:15:00
5:35 AM,59.9,58.1,94,30.15,1.8,West,5.8,-,N/A,,Mist,260,2013-07-24 11:35:00
5:55 AM,59.9,58.3,94,30.16,1.8,Calm,Calm,-,N/A,,Mist,0,2013-07-24 11:55:00
6:15 AM,60.3,58.8,95,30.16,2.5,Calm,Calm,-,N/A,,Clear,0,2013-07-24 12:15:00
6:35 AM,61.3,59.7,94,30.16,3.0,Calm,Calm,-,N/A,,Clear,0,2013-07-24 12:35:00
6:55 AM,63.3,61.2,93,30.16,3.0,Calm,Calm,-,N/A,,Clear,0,2013-07-24 12:55:00
7:15 AM,64.2,61.9,92,30.16,4.0,Calm,Calm,-,N/A,,Clear,0,2013-07-24 13:15:00
7:35 AM,65.5,62.8,91,30.16,4.0,Calm,Calm,-,N/A,,Clear,0,2013-07-24 13:35:00
7:55 AM,67.1,63.9,89,30.17,5.0,Calm,Calm,-,N/A,,Clear,0,2013-07-24 13:55:00
8:15 AM,68.2,64.0,87,30.17,7.0,Calm,Calm,-,N/A,,Clear,0,2013-07-24 14:15:00
8:35 AM,70.5,64.4,81,30.18,10.0,SW,3.5,-,N/A,,Scattered Clouds,230,2013-07-24 14:35:00
8:55 AM,71.2,63.9,77,30.18,10.0,South,3.5,-,N/A,,Scattered Clouds,190,2013-07-24 14:55:00
9:15 AM,73.4,63.0,70,30.18,10.0,South,5.8,-,N/A,,Scattered Clouds,170,2013-07-24 15:15:00
9:35 AM,74.1,63.0,68,30.18,10.0,SE,4.6,-,N/A,,Clear,140,2013-07-24 15:35:00
9:55 AM,75.2,62.4,64,30.18,10.0,SSE,5.8,-,N/A,,Clear,160,2013-07-24 15:55:00
10:15 AM,77.0,61.9,59,30.17,10.0,South,3.5,-,N/A,,Clear,190,2013-07-24 16:15:00
10:35 AM,79.0,61.3,55,30.17,10.0,WSW,4.6,-,N/A,,Clear,240,2013-07-24 16:35:00
10:55 AM,79.9,61.3,53,30.17,10.0,SSE,8.1,-,N/A,,Clear,150,2013-07-24 16:55:00
11:15 AM,81.3,62.2,52,30.17,10.0,SSW,5.8,-,N/A,,Clear,200,2013-07-24 17:15:00
11:35 AM,81.5,62.1,52,30.17,10.0,South,4.6,-,N/A,,Clear,190,2013-07-24 17:35:00
11:55 AM,82.6,60.6,47,30.16,10.0,WSW,5.8,-,N/A,,Clear,240,2013-07-24 17:55:00
12:15 PM,83.5,61.0,46,30.15,10.0,WSW,8.1,-,N/A,,Clear,240,2013-07-24 18:15:00
12:35 PM,84.6,58.6,41,30.14,10.0,WSW,3.5,-,N/A,,Clear,240,2013-07-24 18:35:00
12:55 PM,84.9,59.9,43,30.14,10.0,SSW,8.1,-,N/A,,Clear,210,2013-07-24 18:55:00
1:15 PM,86.0,57.9,38,30.13,10.0,SW,8.1,-,N/A,,Clear,230,2013-07-24 19:15:00
1:35 PM,87.1,57.6,37,30.11,10.0,SSW,6.9,-,N/A,,Scattered Clouds,200,2013-07-24 19:35:00
1:55 PM,88.3,57.4,35,30.11,10.0,SSW,3.5,-,N/A,,Scattered Clouds,210,2013-07-24 19:55:00
2:15 PM,88.2,57.9,36,30.11,10.0,West,3.5,-,N/A,,Scattered Clouds,260,2013-07-24 20:15:00
2:35 PM,86.9,58.6,38,30.11,10.0,SW,4.6,-,N/A,,Scattered Clouds,230,2013-07-24 20:35:00
2:55 PM,86.9,54.0,32,30.11,10.0,Calm,Calm,-,N/A,,Clear,0,2013-07-24 20:55:00
3:15 PM,85.6,56.7,37,30.11,10.0,SSW,6.9,-,N/A,,Scattered Clouds,210,2013-07-24 21:15:00
3:35 PM,85.8,55.4,35,30.10,10.0,SSW,4.6,-,N/A,,Scattered Clouds,210,2013-07-24 21:35:00
3:55 PM,86.4,55.0,34,30.10,10.0,SSE,5.8,-,N/A,,Clear,150,2013-07-24 21:55:00
4:15 PM,85.8,54.5,34,30.10,10.0,SSE,4.6,-,N/A,,Clear,160,2013-07-24 22:15:00
4:35 PM,86.4,52.7,31,30.10,10.0,SE,6.9,-,N/A,,Clear,140,2013-07-24 22:35:00
4:55 PM,85.5,53.8,34,30.10,10.0,SSE,5.8,-,N/A,,Scattered Clouds,150,2013-07-24 22:55:00
5:15 PM,84.6,55.2,36,30.09,10.0,SSE,5.8,-,N/A,,Scattered Clouds,150,2013-07-24 23:15:00
5:35 PM,83.7,55.4,38,30.09,10.0,ESE,3.5,-,N/A,Thunderstorm,Mostly Cloudy,110,2013-07-24 23:35:00
5:55 PM,75.4,54.1,48,30.11,3.0,NNW,29.9,65.6,N/A,Thunderstorm,Haze,330,2013-07-24 23:55:00
6:15 PM,65.8,57.2,74,30.13,4.0,NNE,24.2,41.4,0.09,Rain-Thunderstorm,Light Thunderstorms and Rain,20,2013-07-25 00:15:00
6:35 PM,67.1,58.3,73,30.11,10.0,NE,16.1,-,0.09,Rain,Light Rain,40,2013-07-25 00:35:00
6:55 PM,68.4,58.8,71,30.11,10.0,NNE,15.0,-,0.09,Rain,Light Rain,30,2013-07-25 00:55:00
7:15 PM,68.4,58.8,71,30.13,10.0,North,13.8,17.3,0.01,Rain-Thunderstorm,Light Thunderstorms and Rain,350,2013-07-25 01:15:00
7:35 PM,66.9,59.0,76,30.14,10.0,NW,16.1,-,0.03,Rain-Thunderstorm,Thunderstorms and Rain,320,2013-07-25 01:35:00
7:55 PM,66.4,57.0,72,30.14,10.0,NNW,20.7,-,0.04,Rain-Thunderstorm,Light Thunderstorms and Rain,340,2013-07-25 01:55:00
8:15 PM,66.6,57.4,72,30.17,10.0,NNW,12.7,20.7,0.02,Rain-Thunderstorm,Rain,330,2013-07-25 02:15:00
8:35 PM,70.2,56.5,62,30.15,5.0,South,16.1,-,0.15,Rain-Thunderstorm,Thunderstorms and Rain,180,2013-07-25 02:35:00
8:55 PM,67.5,58.6,73,30.14,10.0,SW,19.6,25.3,0.17,Rain-Thunderstorm,Light Thunderstorms and Rain,220,2013-07-25 02:55:00
9:15 PM,69.1,55.4,62,30.13,10.0,SSW,17.3,26.5,0.01,Rain-Thunderstorm,Light Thunderstorms and Rain,200,2013-07-25 03:15:00
9:35 PM,68.9,55.0,61,30.12,10.0,SSW,15.0,21.9,0.01,Rain,Light Rain,210,2013-07-25 03:35:00
9:55 PM,68.4,56.3,65,30.14,10.0,SW,13.8,18.4,0.01,Rain,Light Rain,220,2013-07-25 03:55:00
10:15 PM,66.6,57.2,72,30.15,10.0,SSW,19.6,25.3,0.01,Rain,Rain,210,2013-07-25 04:15:00
10:35 PM,64.8,58.3,79,30.18,10.0,SW,18.4,27.6,0.03,Rain,Rain,220,2013-07-25 04:35:00
10:55 PM,63.5,60.1,89,30.21,5.0,SW,15.0,25.3,0.13,Rain-Thunderstorm,Rain,220,2013-07-25 04:55:00
11:15 PM,62.8,59.9,90,30.22,5.0,SW,11.5,21.9,0.10,Rain,Heavy Rain,230,2013-07-25 05:15:00
11:35 PM,62.8,59.9,90,30.22,5.0,South,9.2,-,0.22,Rain,Heavy Rain,190,2013-07-25 05:35:00
11:55 PM,62.8,59.9,90,30.20,10.0,SSE,6.9,-,0.26,Rain,Light Rain,160,2013-07-25 05:55:00